This demonstration page uses our WeatherBlox Daily Observations layout. Learn more.

Left ArrowRight Arrow

Hourly Observations for December 5, 2022

Temp ( °F °C ) Dew Point ( °F °C ) Humidity (%) Winds ( mph kmh ) Pressure ( in mb ) Visibility ( mi km ) Precip ( " mm )
12:51 am 00:51 Clear 26 -3.3 23 -5 88 88 Calm 30.21 1023 10 16 0.00 0.00
1:51 am 01:51 Clear 26 -3.3 22 -5.6 84 84 Calm 30.23 1024 10 16 0.00 0.00
2:51 am 02:51 Clear 26 -3.3 22 -5.6 84 84 Calm 30.23 1024 10 16 0.00 0.00
3:51 am 03:51 Clear 26 -3.3 22 -5.6 84 84 Calm 30.23 1024 10 16 0.00 0.00
4:51 am 04:51 Clear 25 -3.9 22 -5.6 88 88 WNW 3 6 30.23 1024 10 16 0.00 0.00
5:51 am 05:51 Clear 25 -3.9 22 -5.6 88 88 Calm 30.24 1024 10 16 0.00 0.00
6:51 am 06:51 Mostly Clear 25 -3.9 22 -5.6 88 88 Calm 30.26 1025 10 16 0.00 0.00
7:00 am 07:00 Mostly Sunny 24 -4.4 21 -6.1 88 88 WNW 5 7 30.27 1025 10 16 0.00 0.00
7:51 am 07:51 Mostly Sunny 28 -2.2 23 -5 81 81 Calm 30.29 1026 10 16 0.00 0.00
8:51 am 08:51 Mostly Sunny 33 0.6 27 -2.8 78 78 Calm 30.30 1026 10 16 0.00 0.00
9:51 am 09:51 Mostly Sunny 39 3.9 31 -0.6 72 72 SSE 3 6 30.32 1027 10 16 0.00 0.00
10:51 am 10:51 Mostly Sunny 46 7.8 32 0 58 58 SSE 9 15 30.31 1026 10 16 0.00 0.00
11:51 am 11:51 Mostly Sunny 48 8.9 32 0 54 54 S 14 22 30.29 1026 10 16 0.00 0.00
12:51 pm 12:51 Mostly Cloudy 49 9.4 33 0.6 54 54 SSW 14 22 30.28 1026 10 16 0.00 0.00
1:51 pm 13:51 Mostly Cloudy 48 8.9 32 0 54 54 SSW 13 20 30.28 1025 10 16 0.00 0.00
2:51 pm 14:51 Mostly Cloudy 46 7.8 33 0.6 60 60 SSW 9 15 30.28 1025 10 16 0.00 0.00
3:51 pm 15:51 Mostly Cloudy 44 6.7 34 1.1 67 67 SSW 8 13 30.29 1026 10 16 0.00 0.00
4:51 pm 16:51 Mostly Cloudy 43 6.1 33 0.6 68 68 SSW 5 7 30.32 1027 10 16 0.00 0.00
5:51 pm 17:51 Mostly Cloudy 44 6.7 33 0.6 65 65 Calm 30.35 1028 10 16 0.00 0.00
6:51 pm 18:51 Cloudy 40 4.4 33 0.6 76 76 Calm 30.35 1028 10 16 0.00 0.00
7:51 pm 19:51 Cloudy 37 2.8 32 0 82 82 Calm 30.35 1028 10 16 0.00 0.00
8:51 pm 20:51 Cloudy 37 2.8 32 0 82 82 WNW 5 7 30.36 1028 10 16 0.00 0.00
9:51 pm 21:51 Partly Cloudy 35 1.7 32 0 88 88 Calm 30.36 1028 10 16 0.00 0.00
10:51 pm 22:51 Partly Cloudy 34 1.1 31 -0.6 88 88 WNW 5 7 30.37 1028 10 16 0.00 0.00
11:51 pm 23:51 Mostly Cloudy 35 1.7 32 0 88 88 Calm 30.37 1029 10 16 0.00 0.00

Powered by AerisWeather